Temperature
18 18 18 18 19 19 18 18 18 18 18 17 17 18 18 18 17 17 17 17 17 17 17 17 17 17 17 17 17 17 17 17 17 17 17 17 17 17 17 17 17 17 17
18 18 18 18 18 18 18 18 18 18 18 18 18 18 18 18 18 17 17 17 17 17 17 17 17 17 17 17 17 17 17 17 17 17 17 17 17 17 17 17 17 17 17
18 18 18 18 18 18 18 18 18 18 18 18 18 18 18 18 18 17 17 17 17 17 17 17 17 17 17 17 17 17 17 17 17 17 17 17 17 17 17 17 17 17 16
18 18 18 18 18 18 18 18 18 18 18 18 18 18 18 18 17 17 17 17 17 17 17 17 17 17 17 17 17 17 17 17 17 17 17 17 17 17 17 16 16 16 16
18 18 18 18 18 18 18 18 18 18 18 18 18 18 18 18 17 17 17 17 17 17 17 17 17 17 17 17 17 17 17 17 17 16 16 16 16 16 16 16 16 16 16
18 18 18 18 18 18 18 18 18 18 18 18 17 17 17 17 17 17 17 17 17 17 17 17 17 17 17 17 17 17 17 17 17 16 16 16 16 16 16 16 16 16 16
18 18 18 18 18 18 18 18 18 17 17 17 17 17 17 17 17 17 17 17 17 17 17 17 17 17 17 17 17 17 17 17 17 16 16 16 16 16 16 16 16 16 16
18 18 18 18 18 18 18 17 17 17 17 17 17 17 17 17 17 17 17 17 17 17 17 17 17 17 17 17 17 17 17 17 17 16 16 16 16 16 16 16 16 16 16
18 18 18 18 17 17 17 17 17 17 17 17 17 17 17 17 17 17 17 17 17 17 17 17 17 17 17 17 17 17 17 17 16 16 16 16 16 16 16 16 16 16 16
18 18 18 17 17 17 17 17 17 17 16 17 17 17 17 17 17 17 17 17 17 17 17 17 17 17 17 17 17 17 16 16 16 16 16 16 16 16 16 16 16 16 15
17 17 17 17 17 17 17 17 16 16 16 16 16 16 16 16 16 17 17 17 17 17 17 17 17 17 17 17 17 16 16 16 16 16 16 16 16 16 16 16 16 16 16
16 16 17 16 16 16 16 16 16 16 16 16 16 16 16 16 16 16 16 16 16 16 16 16 17 17 17 17 17 16 16 16 16 16 16 16 16 16 16 16 16 16 15
16 16 16 16 16 16 16 16 16 15 15 15 15 15 15 15 15 15 15 15 15 16 16 16 16 16 16 16 16 16 16 16 16 16 15 15 15 15 15 15 15 15 15
15 15 15 15 15 15 15 15 15 15 15 15 15 15 15 15 15 15 15 15 15 15 15 16 16 16 16 16 16 16 16 16 16 15 15 15 15 15 15 15 15 15 15
15 15 15 15 14 14 14 14 14 14 14 14 14 14 14 14 14 14 14 14 14 14 15 15 15 15 16 16 16 16 16 16 15 15 15 15 15 15 14 14 14 15 15
14 14 14 14 14 14 14 14 14 14 14 14 14 14 14 14 14 14 14 14 14 14 14 15 15 15 15 15 15 15 15 15 15 15 15 15 14 14 14 14 14 14 14
14 14 14 14 14 14 14 14 14 14 14 14 14 14 14 14 14 14 14 14 14 14 14 14 14 14 15 15 15 15 15 15 15 15 15 14 14 14 14 14 14 14 14
14 14 14 14 14 14 14 14 14 14 14 14 14 14 14 14 14 14 14 14 14 14 14 14 14 14 14 14 14 15 15 15 15 15 14 14 14 14 14 14 14 14 14
13 13 14 14 13 13 13 13 13 13 14 14 14 14 14 14 14 14 14 14 14 14 14 14 14 14 14 14 14 14 14 14 14 14 14 14 14 14 14 14 14 14 14
13 13 13 13 13 13 13 13 13 13 14 14 14 14 14 14 14 14 14 14 14 14 14 14 14 14 14 14 14 14 14 14 14 14 14 14 14 14 14 14 14 14 13
13 13 13 13 13 13 13 13 13 13 13 13 14 14 14 14 14 14 14 14 14 14 14 14 13 13 13 13 13 13 13 13 13 13 13 13 13 13 13 13 13 13 13
12 12 13 13 13 13 13 13 13 13 13 13 13 13 14 14 14 14 14 14 14 14 14 14 13 13 13 13 13 13 13 13 13 13 13 13 13 13 13 13 13 13 13
12 12 12 12 12 12 12 12 12 13 13 13 13 13 13 13 14 14 14 14 14 14 13 13 13 13 13 13 13 13 12 12 12 12 12 12 12 12 12 12 13 13 13
11 11 11 11 11 12 12 12 12 12 12 12 12 13 13 13 13 13 13 13 13 13 13 13 13 13 13 13 13 13 12 12 12 12 12 12 12 12 12 12 12 12 12
11 11 11 11 11 11 11 11 11 11 12 12 12 12 12 13 13 13 13 13 13 13 13 13 13 13 13 13 12 12 12 12 12 12 12 11 11 11 11 11 11 11 11
10 10 10 10 10 10 11 11 11 11 11 11 11 12 12 12 12 13 13 13 13 13 13 13 12 12 12 12 12 12 12 12 12 12 11 11 11 11 11 10 10 11 11
Wind_Speed
4 5 5 6 6 6 5 4 3 3 3 3 4 5 5 4 5 4 4 3 3 3 3 3 3 3 3 3 3 4 4 5 6 6 7 7 6 6 5 4 4 3 3
7 5 4 5 6 7 7 5 4 3 3 3 3 5 6 6 6 6 4 4 4 4 3 3 3 3 3 3 3 3 4 5 5 6 6 6 6 6 5 4 3 3 2
11 7 5 5 6 8 7 5 4 3 2 2 3 3 4 5 6 6 5 4 4 4 3 3 3 3 3 4 4 4 4 4 5 6 6 6 6 5 5 5 4 4 3
14 9 6 6 8 7 5 4 3 2 2 2 2 1 2 3 5 6 5 5 5 4 4 4 3 3 4 4 4 4 4 5 5 6 6 6 6 6 6 5 5 5 4
14 10 6 6 7 5 4 5 3 3 3 3 2 1 1 2 3 5 5 7 7 6 5 4 4 4 4 4 4 4 4 5 5 6 6 6 6 7 6 6 6 6 5
13 10 6 5 5 4 4 4 4 3 3 3 2 1 1 2 2 4 4 6 7 7 6 5 4 4 4 4 4 4 4 5 5 6 6 6 6 6 6 6 6 6 6
9 8 6 5 4 5 6 6 4 4 2 3 3 1 2 1 3 4 3 4 5 8 7 7 6 6 5 5 5 5 5 5 5 5 5 5 4 5 5 5 5 6 6
8 7 7 6 5 4 4 4 4 3 2 3 4 3 1 3 3 2 3 4 5 5 7 8 9 8 7 6 6 6 6 5 5 5 5 4 3 4 4 4 5 5 5
9 8 7 7 7 6 5 5 5 5 4 3 3 4 4 5 3 2 2 3 4 4 5 7 9 10 10 9 8 8 8 7 6 6 5 4 4 3 3 3 3 3 3
8 8 7 7 7 6 6 6 5 3 4 3 2 1 2 4 3 2 2 2 3 4 5 5 7 10 11 11 11 11 11 10 9 8 7 6 5 4 4 3 3 3 2
5 7 7 7 7 7 7 7 6 6 4 4 4 3 2 1 1 3 2 2 2 2 3 5 5 8 11 12 13 13 14 13 12 10 9 7 6 5 4 4 3 3 3
3 4 4 5 6 6 7 7 7 7 6 5 4 4 4 3 4 3 4 3 2 3 2 3 4 6 10 12 14 15 16 16 14 13 11 9 8 7 6 5 5 4 3
2 3 3 4 4 5 6 6 7 7 7 6 6 5 4 4 3 3 3 2 2 2 3 3 4 5 7 10 12 14 15 17 16 15 14 12 10 9 8 7 6 5 4
2 2 3 3 3 3 5 5 5 5 5 6 6 5 4 4 4 4 4 4 2 2 2 4 2 3 5 7 10 11 12 16 17 17 15 14 12 11 10 8 7 6 5
3 3 3 3 2 2 3 4 4 4 4 4 5 5 4 4 4 4 4 4 4 3 3 3 2 2 2 4 6 8 10 12 15 17 16 15 14 13 12 10 9 7 6
4 3 3 3 2 2 3 3 3 3 3 3 3 4 4 3 4 4 4 4 4 4 3 3 2 2 2 2 3 5 8 9 11 14 15 16 15 14 13 12 12 10 9
5 5 3 3 3 3 3 3 3 3 3 2 2 3 3 3 4 4 4 4 4 4 4 3 2 1 1 2 1 1 3 5 7 10 12 14 15 15 15 14 14 13 12
6 6 5 5 4 4 4 4 3 3 3 2 1 2 2 2 3 3 4 4 4 4 4 3 1 1 1 1 2 1 1 3 4 6 9 11 13 14 15 15 15 15 14
7 6 6 6 5 5 4 4 3 3 2 2 1 1 1 2 3 3 3 3 3 3 3 2 1 1 1 1 1 2 1 1 2 3 5 8 10 12 13 15 15 15 15
8 8 7 6 6 5 5 4 3 3 3 2 1 1 2 3 3 4 3 3 3 3 3 2 1 0 1 1 1 1 2 2 2 2 2 3 5 8 10 11 13 14 14
10 8 8 8 7 5 5 5 4 3 3 3 3 1 0 1 3 3 3 4 4 3 3 2 1 0 1 1 1 1 1 1 2 2 2 2 2 1 3 5 7 9 11
9 10 10 9 9 8 9 9 5 4 4 4 4 4 3 2 3 4 5 6 6 4 4 3 2 1 0 0 0 0 0 1 1 2 2 2 2 2 2 2 2 3 4
9 10 10 10 9 10 13 11 8 4 4 4 4 3 3 3 4 4 6 7 5 5 5 5 3 2 1 0 1 1 1 2 1 2 2 2 3 3 4 6 6 4 2
8 8 9 10 9 11 15 12 10 6 5 5 5 4 3 4 3 4 5 6 5 5 4 4 4 2 1 1 1 1 2 2 2 3 2 2 3 3 4 8 11 10 9
8 8 8 9 10 11 15 13 10 5 5 6 5 5 4 4 5 5 6 6 6 5 6 9 8 7 6 5 4 3 3 3 3 3 3 2 2 2 4 6 11 14 15
7 7 8 8 9 9 14 14 10 5 5 5 5 6 7 6 6 6 5 5 6 4 4 5 6 8 8 9 9 5 3 3 2 2 3 2 2 1 3 4 7 11 12
Wind_Direction
206 213 220 221 224 223 222 232 244 257 268 270 252 237 235 229 216 217 231 234 224 225 201 176 166 161 166 171 169 167 165 165 165 162 157 155 152 147 143 141 138 135 128
210 210 219 221 222 218 219 221 231 245 259 266 259 237 226 216 206 207 218 236 236 233 229 207 190 187 190 191 190 190 185 183 182 179 177 173 170 169 168 168 167 162 151
212 211 214 221 223 216 212 215 228 237 249 243 250 239 215 202 195 201 211 226 237 237 235 233 224 211 215 213 210 209 198 196 198 198 194 191 190 191 193 195 196 197 198
213 209 213 225 220 203 195 196 204 214 228 218 220 236 202 190 195 203 213 225 231 233 235 238 241 233 234 233 228 221 212 206 207 209 208 205 207 209 213 216 218 218 219
213 209 214 223 214 195 192 205 189 186 196 197 198 222 230 209 202 208 218 228 231 232 233 239 240 237 241 246 242 234 225 217 216 218 218 216 217 221 225 228 232 232 232
206 205 209 215 204 199 201 193 184 180 181 176 170 134 282 242 220 221 224 228 232 235 234 237 238 238 239 246 250 246 239 229 227 227 226 221 218 221 228 234 238 240 242
200 194 200 193 192 204 209 191 171 171 168 138 115 70 330 288 238 237 227 227 231 233 232 233 232 233 238 243 245 247 245 238 234 233 234 230 227 227 235 240 244 249 252
195 196 190 183 185 195 196 184 164 158 167 163 150 139 247 314 284 238 229 228 231 222 225 229 227 228 231 235 239 243 248 242 238 238 237 234 233 236 239 244 248 251 255
189 183 183 182 183 186 193 188 179 171 178 193 184 156 164 215 257 290 254 241 230 219 227 227 227 229 228 230 235 238 238 237 238 240 238 234 233 238 240 246 252 256 254
187 179 178 180 182 182 187 193 185 186 173 182 200 197 161 157 166 241 293 273 248 232 232 231 232 230 227 227 231 233 233 232 234 236 236 234 234 237 241 245 241 241 247
182 179 174 176 184 186 190 189 182 190 190 185 181 170 153 123 146 163 233 283 303 261 239 232 233 233 229 227 229 231 231 229 229 232 234 235 235 234 235 232 232 237 246
162 174 172 181 188 189 193 193 186 191 197 196 194 182 174 173 186 178 204 229 260 287 279 251 235 234 232 228 230 231 229 227 226 228 229 234 237 237 236 234 232 235 239
155 173 172 187 194 193 190 184 184 190 193 194 197 198 194 190 162 164 176 200 233 282 304 281 249 243 240 231 232 232 228 226 224 225 226 231 235 238 240 241 243 237 242
124 133 141 152 158 171 182 179 181 185 188 195 198 192 190 192 180 175 171 168 198 252 277 276 292 260 257 246 241 233 230 227 225 225 226 230 233 235 235 238 246 248 253
76 95 112 128 137 141 152 160 170 175 179 189 194 196 197 193 189 195 181 177 176 200 246 270 284 301 281 260 253 234 230 232 229 226 226 229 231 232 233 235 237 241 244
52 66 77 93 97 117 151 151 147 153 162 177 187 198 194 186 184 190 187 186 180 177 216 240 251 273 294 286 255 227 231 235 235 231 229 230 231 232 233 235 236 237 237
44 54 63 81 81 77 91 111 114 117 123 142 183 190 197 183 182 184 176 175 181 176 206 244 254 281 301 325 342 263 238 229 234 236 233 234 234 234 235 236 236 235 236
39 43 50 62 66 69 73 90 106 110 120 137 162 180 196 189 181 173 173 180 183 180 187 218 273 316 319 336 325 309 276 239 237 247 244 241 240 238 239 238 236 235 235
39 42 50 55 56 56 60 67 82 89 102 120 143 188 202 182 185 175 173 175 174 169 164 176 240 327 330 354 5 359 352 341 277 259 252 249 248 247 244 241 238 235 235
41 39 41 41 44 48 49 49 55 56 45 37 37 209 200 192 191 181 172 166 151 139 140 152 177 311 321 342 32 14 1 5 344 340 315 285 265 257 251 246 243 239 237
40 37 39 34 30 37 36 36 37 45 36 28 16 8 69 142 167 165 157 154 144 134 131 131 132 72 2 18 11 353 360 353 10 9 360 360 349 324 289 263 252 244 239
37 39 37 32 31 30 33 39 44 43 39 36 25 13 16 57 106 116 124 141 146 145 149 143 140 141 165 232 305 19 38 47 39 11 15 13 24 23 11 3 315 260 245
36 39 34 30 26 22 34 39 44 51 50 45 35 24 26 48 73 92 97 96 94 105 133 143 136 144 146 148 129 74 60 66 58 1 9 27 18 30 26 29 32 38 23
33 34 31 27 26 24 30 35 44 47 49 41 36 33 37 37 54 93 100 90 77 68 84 99 114 121 126 124 118 115 113 91 65 23 21 53 17 29 29 35 38 47 49
34 32 29 27 25 17 21 29 40 40 44 37 30 35 42 41 49 96 106 104 92 74 78 90 92 82 74 77 93 91 80 79 57 20 15 58 28 28 38 33 34 46 55
31 29 30 25 22 17 19 27 37 39 39 31 27 28 32 41 54 92 108 116 113 99 90 79 66 57 54 56 58 64 94 100 91 45 9 38 35 45 67 37 35 38 48
Height
1549 1550 1551 1551 1552 1553 1554 1556 1558 1559 1560 1561 1562 1563 1564 1565 1565 1565 1564 1564 1564 1564 1564 1565 1566 1567 1568 1569 1570 1571 1571 1572 1573 1574 1575 1576 1577 1578 1579 1580 1580 1581 1581
1548 1549 1550 1550 1551 1552 1553 1555 1557 1558 1559 1561 1562 1563 1563 1564 1564 1564 1564 1564 1564 1564 1564 1565 1565 1566 1567 1568 1569 1570 1571 1572 1573 1574 1575 1576 1577 1578 1578 1579 1580 1580 1580
1545 1547 1548 1549 1550 1551 1553 1554 1556 1557 1558 1560 1561 1562 1563 1563 1564 1564 1564 1564 1564 1564 1564 1564 1565 1565 1566 1567 1568 1569 1570 1571 1572 1573 1574 1575 1576 1577 1578 1578 1579 1579 1580
1542 1544 1545 1547 1549 1550 1551 1553 1554 1555 1557 1558 1560 1561 1561 1562 1563 1563 1563 1563 1564 1564 1564 1564 1564 1565 1565 1566 1567 1568 1569 1570 1571 1572 1573 1574 1575 1576 1576 1577 1577 1578 1578
1538 1540 1542 1544 1546 1547 1549 1551 1552 1554 1555 1557 1558 1559 1560 1561 1561 1562 1562 1563 1563 1564 1564 1564 1564 1564 1565 1565 1566 1566 1567 1568 1569 1570 1571 1572 1573 1574 1575 1575 1576 1576 1577
1534 1536 1538 1541 1543 1544 1546 1548 1550 1552 1553 1555 1556 1557 1558 1559 1559 1560 1561 1562 1562 1563 1563 1564 1564 1564 1564 1564 1565 1565 1566 1567 1568 1568 1569 1570 1571 1572 1572 1573 1574 1574 1575
1529 1531 1533 1536 1538 1540 1542 1545 1547 1549 1550 1552 1554 1555 1556 1556 1557 1558 1559 1560 1560 1561 1562 1563 1563 1563 1564 1564 1564 1564 1565 1565 1566 1567 1567 1568 1569 1569 1570 1571 1571 1572 1572
1523 1525 1528 1530 1533 1535 1538 1541 1543 1545 1547 1549 1550 1552 1553 1554 1554 1555 1556 1557 1558 1559 1560 1561 1562 1562 1563 1563 1563 1564 1564 1564 1565 1565 1566 1566 1567 1567 1568 1568 1569 1569 1570
1518 1520 1522 1525 1527 1530 1533 1536 1538 1541 1543 1545 1547 1548 1549 1549 1550 1552 1552 1553 1555 1556 1557 1558 1559 1560 1561 1561 1562 1563 1563 1563 1563 1564 1564 1564 1565 1565 1565 1566 1566 1567 1567
1512 1514 1517 1519 1521 1524 1527 1530 1533 1536 1539 1540 1542 1544 1545 1546 1547 1548 1549 1550 1551 1552 1553 1555 1556 1557 1558 1559 1560 1561 1561 1562 1562 1563 1563 1563 1563 1563 1564 1564 1564 1565 1565
1507 1510 1512 1514 1516 1519 1521 1524 1527 1530 1533 1536 1537 1539 1541 1542 1543 1545 1545 1546 1547 1548 1549 1551 1552 1554 1555 1556 1557 1558 1559 1560 1560 1561 1561 1561 1561 1562 1562 1562 1562 1563 1563
1503 1505 1508 1510 1512 1514 1516 1519 1522 1524 1527 1530 1532 1534 1536 1537 1538 1540 1541 1542 1543 1545 1545 1547 1548 1549 1551 1552 1554 1555 1556 1557 1558 1559 1559 1559 1560 1560 1560 1560 1560 1561 1561
1500 1502 1504 1506 1507 1509 1511 1514 1517 1519 1522 1524 1527 1529 1531 1532 1534 1536 1537 1538 1539 1540 1541 1543 1544 1545 1546 1548 1550 1551 1553 1554 1555 1556 1557 1557 1557 1558 1558 1558 1559 1559 1559
1499 1500 1502 1503 1504 1505 1507 1509 1511 1514 1517 1519 1522 1524 1526 1528 1529 1531 1533 1534 1535 1536 1537 1538 1540 1541 1542 1544 1545 1547 1549 1550 1552 1553 1554 1554 1555 1555 1556 1556 1557 1557 1557
1498 1499 1500 1502 1502 1503 1505 1506 1508 1510 1512 1515 1518 1520 1522 1524 1525 1527 1529 1531 1533 1532 1533 1534 1535 1537 1538 1539 1540 1542 1544 1546 1548 1549 1550 1551 1552 1553 1553 1553 1554 1554 1555
1499 1499 1500 1501 1501 1502 1503 1505 1506 1507 1509 1512 1515 1517 1519 1521 1522 1524 1526 1527 1529 1530 1530 1531 1532 1533 1534 1535 1536 1537 1539 1541 1543 1545 1546 1547 1549 1549 1550 1551 1551 1551 1552
1500 1500 1500 1500 1500 1501 1502 1503 1504 1506 1508 1510 1512 1514 1516 1518 1520 1521 1523 1524 1526 1527 1528 1529 1529 1530 1530 1531 1532 1533 1535 1537 1538 1540 1541 1543 1544 1545 1546 1547 1548 1548 1549
1502 1501 1501 1501 1501 1501 1502 1502 1503 1505 1507 1509 1511 1513 1515 1517 1518 1519 1521 1522 1523 1524 1526 1526 1527 1527 1528 1528 1529 1530 1531 1533 1534 1535 1537 1538 1539 1541 1542 1543 1544 1544 1545
1504 1504 1503 1503 1503 1503 1503 1503 1504 1505 1506 1508 1510 1512 1514 1516 1517 1518 1520 1521 1521 1522 1524 1524 1525 1525 1525 1526 1526 1527 1528 1529 1530 1531 1532 1533 1534 1536 1537 1538 1539 1540 1541
1506 1506 1505 1505 1504 1504 1505 1505 1505 1506 1507 1509 1510 1512 1513 1515 1516 1517 1519 1519 1520 1521 1522 1523 1523 1524 1524 1524 1524 1524 1525 1526 1527 1527 1528 1529 1530 1531 1532 1533 1534 1535 1536
1508 1508 1507 1506 1506 1506 1506 1506 1507 1507 1508 1509 1510 1512 1513 1514 1515 1517 1518 1518 1519 1520 1521 1521 1522 1522 1523 1523 1523 1523 1523 1523 1524 1525 1525 1526 1526 1527 1527 1528 1529 1530 1530
1510 1509 1509 1508 1508 1507 1507 1507 1507 1508 1508 1509 1510 1511 1512 1514 1515 1516 1517 1518 1519 1520 1520 1521 1521 1522 1522 1522 1522 1522 1522 1522 1523 1523 1524 1524 1524 1524 1524 1524 1525 1525 1526
1513 1512 1511 1510 1509 1508 1508 1507 1507 1508 1508 1509 1510 1511 1512 1513 1514 1516 1517 1518 1519 1520 1521 1521 1522 1522 1522 1522 1521 1521 1521 1522 1522 1522 1523 1522 1523 1522 1522 1522 1522 1522 1522
1516 1515 1513 1512 1511 1510 1509 1508 1508 1508 1508 1509 1509 1510 1511 1513 1514 1515 1516 1518 1519 1520 1520 1521 1522 1522 1522 1522 1521 1522 1522 1522 1522 1522 1522 1523 1523 1522 1522 1521 1521 1521 1521
1520 1518 1516 1514 1513 1511 1510 1509 1509 1508 1508 1509 1509 1510 1511 1512 1513 1515 1516 1517 1519 1520 1521 1521 1522 1522 1522 1522 1522 1522 1522 1522 1522 1523 1523 1523 1523 1523 1523 1522 1522 1521 1521
1523 1521 1519 1517 1515 1513 1512 1511 1510 1509 1509 1509 1510 1510 1511 1512 1513 1514 1516 1517 1518 1520 1521 1522 1522 1522 1523 1523 1523 1523 1523 1523 1523 1523 1524 1524 1524 1524 1524 1524 1523 1523 1522